ASTRA 2F

Last updated on Fri Jul 11 2025 00:02:43 GMT+0000 (Coordinated Universal Time)

1 38778U 12051A 25191.56729256 .00000162 00000+0 00000+0 0 9999 2 38778 0.1023 257.9534 0002876 278.8456 344.3405 1.00275590 37719
UTC large
Height (km)
Speed (km/s)
/
Latitude / Longitude
Inclination (degrees)
Orbital Period (minutes)
Azimuth
Elevation
Range (km)
Doppler Factor

Next 0 passes for location: London (51.5072 / 0.1276)

Sorry there are no passes over London.